Wetterdaten: Freitag, 10.07.2015
Datum Zeit Auen-Temp. Temp gefhlt Luftfeuchte Luftdruck Regen Wind Richtung Richtung Taupunkt Windben
10.07.2015 00:00 12,0 C 11,9 C 75 % 1017,3 hPa 0,0 mm 0,0 km/h (0 Bft) S 180 7,7 C 0,0 km/h (0 Bft)
10.07.2015 00:05 12,0 C 11,9 C 75 % 1017,3 hPa 0,0 mm 0,0 km/h (0 Bft) S 180 7,7 C 0,0 km/h (0 Bft)
10.07.2015 00:10 12,0 C 11,9 C 75 % 1017,6 hPa 0,0 mm 0,0 km/h (0 Bft) S 180 7,7 C 0,0 km/h (0 Bft)
10.07.2015 00:15 12,0 C 11,9 C 75 % 1017,6 hPa 0,0 mm 0,0 km/h (0 Bft) S 180 7,7 C 0,0 km/h (0 Bft)
10.07.2015 00:20 12,0 C 11,9 C 75 % 1017,6 hPa 0,0 mm 0,0 km/h (0 Bft) S 180 7,7 C 0,0 km/h (0 Bft)
10.07.2015 00:25 11,9 C 11,8 C 76 % 1017,6 hPa 0,0 mm 0,0 km/h (0 Bft) S 180 7,8 C 0,0 km/h (0 Bft)
10.07.2015 00:30 11,8 C 11,7 C 76 % 1017,4 hPa 0,0 mm 0,0 km/h (0 Bft) SO 135 7,7 C 0,0 km/h (0 Bft)
10.07.2015 00:35 11,8 C 11,6 C 77 % 1017,4 hPa 0,0 mm 0,0 km/h (0 Bft) S-SO 157 7,9 C 0,0 km/h (0 Bft)
10.07.2015 00:40 11,6 C 11,4 C 76 % 1017,4 hPa 0,0 mm 0,0 km/h (0 Bft) SO 135 7,5 C 0,0 km/h (0 Bft)
10.07.2015 00:45 11,4 C 11,2 C 76 % 1017,4 hPa 0,0 mm 0,0 km/h (0 Bft) S-SO 157 7,3 C 0,0 km/h (0 Bft)
10.07.2015 00:50 11,3 C 11,0 C 77 % 1017,4 hPa 0,0 mm 0,0 km/h (0 Bft) S-SO 157 7,4 C 0,0 km/h (0 Bft)
10.07.2015 00:55 11,2 C 11,0 C 76 % 1017,4 hPa 0,0 mm 0,0 km/h (0 Bft) S 180 7,1 C 0,0 km/h (0 Bft)
10.07.2015 01:00 11,1 C 10,8 C 77 % 1017,4 hPa 0,0 mm 0,0 km/h (0 Bft) S-SO 157 7,2 C 0,0 km/h (0 Bft)
10.07.2015 01:05 11,1 C 10,8 C 78 % 1017,4 hPa 0,0 mm 0,0 km/h (0 Bft) S-SO 157 7,4 C 0,0 km/h (0 Bft)
10.07.2015 01:10 10,7 C 10,5 C 78 % 1017,4 hPa 0,0 mm 0,0 km/h (0 Bft) S-SO 157 7,0 C 0,0 km/h (0 Bft)
10.07.2015 01:15 10,6 C 10,4 C 77 % 1017,4 hPa 0,0 mm 0,0 km/h (0 Bft) S-SO 157 6,7 C 0,0 km/h (0 Bft)
10.07.2015 01:20 10,7 C 10,5 C 78 % 1017,4 hPa 0,0 mm 0,0 km/h (0 Bft) SO 135 7,0 C 0,0 km/h (0 Bft)
10.07.2015 01:25 10,6 C 10,4 C 78 % 1017,4 hPa 0,0 mm 0,0 km/h (0 Bft) SO 135 6,9 C 0,0 km/h (0 Bft)
10.07.2015 01:30 10,5 C 10,2 C 79 % 1017,3 hPa 0,0 mm 0,0 km/h (0 Bft) S 180 7,0 C 0,0 km/h (0 Bft)
10.07.2015 01:35 10,5 C 10,3 C 78 % 1017,3 hPa 0,0 mm 0,0 km/h (0 Bft) SO 135 6,8 C 0,0 km/h (0 Bft)
10.07.2015 01:40 10,6 C 10,3 C 80 % 1017,3 hPa 0,0 mm 0,0 km/h (0 Bft) SO 135 7,3 C 0,0 km/h (0 Bft)
10.07.2015 01:41 10,4 C 10,2 C 79 % 1017,3 hPa 0,0 mm 0,0 km/h (0 Bft) SO 135 6,9 C 0,0 km/h (0 Bft)
10.07.2015 01:42 10,4 C 10,2 C 79 % 1017,3 hPa 0,0 mm 0,0 km/h (0 Bft) SO 135 6,9 C 0,0 km/h (0 Bft)
10.07.2015 01:45 10,4 C 10,2 C 79 % 1017,3 hPa 0,0 mm 0,0 km/h (0 Bft) SO 135 6,9 C 0,0 km/h (0 Bft)
10.07.2015 01:50 10,3 C 10,0 C 79 % 1017,2 hPa 0,0 mm 0,0 km/h (0 Bft) N-NO 22 6,8 C 0,0 km/h (0 Bft)
10.07.2015 01:55 10,3 C 10,1 C 79 % 1017,2 hPa 0,0 mm 0,0 km/h (0 Bft) S-SO 157 6,8 C 0,0 km/h (0 Bft)
10.07.2015 02:00 10,2 C 10,0 C 79 % 1017,2 hPa 0,0 mm 0,0 km/h (0 Bft) S-SO 157 6,7 C 0,0 km/h (0 Bft)
10.07.2015 02:05 10,1 C 9,9 C 79 % 1017,2 hPa 0,0 mm 0,0 km/h (0 Bft) S 180 6,6 C 0,0 km/h (0 Bft)
10.07.2015 02:10 10,2 C 9,9 C 80 % 1017,4 hPa 0,0 mm 0,0 km/h (0 Bft) S-SO 157 6,9 C 0,0 km/h (0 Bft)
10.07.2015 02:15 10,1 C 9,8 C 79 % 1017,4 hPa 0,0 mm 0,0 km/h (0 Bft) S-SO 157 6,6 C 0,0 km/h (0 Bft)
10.07.2015 02:20 10,1 C 9,8 C 80 % 1017,4 hPa 0,0 mm 0,0 km/h (0 Bft) S-SO 157 6,8 C 0,0 km/h (0 Bft)
10.07.2015 02:25 10,2 C 9,9 C 79 % 1017,4 hPa 0,0 mm 0,0 km/h (0 Bft) S-SO 157 6,7 C 0,0 km/h (0 Bft)
10.07.2015 02:30 10,3 C 10,1 C 79 % 1017,2 hPa 0,0 mm 0,0 km/h (0 Bft) S-SO 157 6,8 C 0,0 km/h (0 Bft)
10.07.2015 02:35 10,3 C 10,1 C 79 % 1017,2 hPa 0,0 mm 0,0 km/h (0 Bft) S-SO 157 6,8 C 0,0 km/h (0 Bft)
10.07.2015 02:40 10,1 C 9,8 C 81 % 1017,2 hPa 0,0 mm 0,0 km/h (0 Bft) S-SO 157 7,0 C 0,0 km/h (0 Bft)
10.07.2015 02:45 10,0 C 9,7 C 81 % 1017,2 hPa 0,0 mm 0,0 km/h (0 Bft) S-SO 157 6,9 C 0,0 km/h (0 Bft)
10.07.2015 02:50 9,9 C 9,6 C 81 % 1017,2 hPa 0,0 mm 0,0 km/h (0 Bft) S-SO 157 6,8 C 0,0 km/h (0 Bft)
10.07.2015 02:55 9,8 C 9,5 C 81 % 1017,2 hPa 0,0 mm 0,0 km/h (0 Bft) SO 135 6,7 C 0,0 km/h (0 Bft)
10.07.2015 03:00 9,5 C 9,2 C 80 % 1017,2 hPa 0,0 mm 0,0 km/h (0 Bft) SO 135 6,2 C 0,0 km/h (0 Bft)
10.07.2015 03:05 9,3 C 9,1 C 80 % 1017,2 hPa 0,0 mm 0,0 km/h (0 Bft) SO 135 6,0 C 0,0 km/h (0 Bft)
10.07.2015 03:10 9,2 C 8,9 C 80 % 1017,1 hPa 0,0 mm 0,0 km/h (0 Bft) S-SW 202 5,9 C 0,0 km/h (0 Bft)
10.07.2015 03:15 9,2 C 8,9 C 81 % 1017,1 hPa 0,0 mm 0,0 km/h (0 Bft) W-SW 247 6,1 C 0,0 km/h (0 Bft)
10.07.2015 03:20 9,1 C 8,8 C 81 % 1017,1 hPa 0,0 mm 0,0 km/h (0 Bft) W-SW 247 6,0 C 0,0 km/h (0 Bft)
10.07.2015 03:25 9,0 C 8,7 C 81 % 1017,1 hPa 0,0 mm 0,0 km/h (0 Bft) S 180 5,9 C 0,0 km/h (0 Bft)
10.07.2015 03:30 8,9 C 8,6 C 82 % 1017,2 hPa 0,0 mm 0,0 km/h (0 Bft) SW 225 6,0 C 0,0 km/h (0 Bft)
10.07.2015 03:35 8,9 C 8,6 C 82 % 1017,2 hPa 0,0 mm 0,0 km/h (0 Bft) S-SO 157 6,0 C 0,0 km/h (0 Bft)
10.07.2015 03:40 8,8 C 8,5 C 82 % 1017,2 hPa 0,0 mm 0,0 km/h (0 Bft) S-SO 157 5,9 C 3,6 km/h (1 Bft)
10.07.2015 03:45 8,6 C 8,3 C 82 % 1017,2 hPa 0,0 mm 0,0 km/h (0 Bft) S 180 5,7 C 0,0 km/h (0 Bft)
10.07.2015 03:50 8,6 C 8,2 C 83 % 1016,9 hPa 0,0 mm 0,0 km/h (0 Bft) S-SW 202 5,9 C 0,0 km/h (0 Bft)
10.07.2015 03:55 8,5 C 8,1 C 82 % 1016,9 hPa 0,0 mm 0,0 km/h (0 Bft) SW 225 5,6 C 0,0 km/h (0 Bft)
10.07.2015 04:00 8,6 C 8,2 C 83 % 1016,9 hPa 0,0 mm 0,0 km/h (0 Bft) S-SW 202 5,9 C 0,0 km/h (0 Bft)
10.07.2015 04:05 8,6 C 8,2 C 83 % 1016,9 hPa 0,0 mm 0,0 km/h (0 Bft) SO 135 5,9 C 0,0 km/h (0 Bft)
10.07.2015 04:10 8,6 C 8,2 C 83 % 1017,0 hPa 0,0 mm 0,0 km/h (0 Bft) S-SO 157 5,9 C 0,0 km/h (0 Bft)
10.07.2015 04:15 8,7 C 8,4 C 81 % 1017,0 hPa 0,0 mm 0,0 km/h (0 Bft) S 180 5,6 C 0,0 km/h (0 Bft)
10.07.2015 04:20 8,7 C 8,4 C 84 % 1017,0 hPa 0,0 mm 0,0 km/h (0 Bft) W-SW 247 6,2 C 0,0 km/h (0 Bft)
10.07.2015 04:25 8,7 C 8,4 C 84 % 1017,0 hPa 0,0 mm 0,0 km/h (0 Bft) SW 225 6,2 C 0,0 km/h (0 Bft)
10.07.2015 04:30 8,4 C 8,1 C 84 % 1016,8 hPa 0,0 mm 0,0 km/h (0 Bft) W-SW 247 5,9 C 0,0 km/h (0 Bft)
10.07.2015 04:35 8,3 C 8,0 C 83 % 1016,8 hPa 0,0 mm 0,0 km/h (0 Bft) W-SW 247 5,6 C 0,0 km/h (0 Bft)
10.07.2015 04:40 8,1 C 7,8 C 83 % 1016,8 hPa 0,0 mm 0,0 km/h (0 Bft) W-SW 247 5,4 C 0,0 km/h (0 Bft)
10.07.2015 04:45 7,9 C 7,6 C 84 % 1016,8 hPa 0,0 mm 0,0 km/h (0 Bft) W-SW 247 5,4 C 0,0 km/h (0 Bft)
10.07.2015 04:50 7,9 C 7,6 C 84 % 1016,7 hPa 0,0 mm 0,0 km/h (0 Bft) SW 225 5,4 C 0,0 km/h (0 Bft)
10.07.2015 04:55 7,8 C 7,5 C 84 % 1016,7 hPa 0,0 mm 0,0 km/h (0 Bft) SW 225 5,3 C 0,0 km/h (0 Bft)
10.07.2015 05:00 7,6 C 7,3 C 84 % 1016,7 hPa 0,0 mm 0,0 km/h (0 Bft) W-SW 247 5,1 C 0,0 km/h (0 Bft)
10.07.2015 05:05 7,6 C 7,3 C 84 % 1016,7 hPa 0,0 mm 0,0 km/h (0 Bft) W-SW 247 5,1 C 0,0 km/h (0 Bft)
10.07.2015 05:10 7,7 C 7,3 C 84 % 1016,6 hPa 0,0 mm 0,0 km/h (0 Bft) W-SW 247 5,2 C 0,0 km/h (0 Bft)
10.07.2015 05:15 7,5 C 7,2 C 84 % 1016,6 hPa 0,0 mm 0,0 km/h (0 Bft) W-SW 247 5,0 C 0,0 km/h (0 Bft)
10.07.2015 05:20 7,4 C 7,1 C 84 % 1016,6 hPa 0,0 mm 0,0 km/h (0 Bft) W-SW 247 4,9 C 0,0 km/h (0 Bft)
10.07.2015 05:25 7,3 C 7,0 C 85 % 1016,6 hPa 0,0 mm 0,0 km/h (0 Bft) W-SW 247 4,9 C 0,0 km/h (0 Bft)
10.07.2015 05:30 7,3 C 7,0 C 85 % 1016,8 hPa 0,0 mm 0,0 km/h (0 Bft) W-SW 247 4,9 C 0,0 km/h (0 Bft)
10.07.2015 05:35 7,5 C 7,1 C 85 % 1016,8 hPa 0,0 mm 0,0 km/h (0 Bft) W-SW 247 5,1 C 0,0 km/h (0 Bft)
10.07.2015 05:40 7,4 C 7,1 C 86 % 1016,8 hPa 0,0 mm 0,0 km/h (0 Bft) SO 135 5,2 C 0,0 km/h (0 Bft)
10.07.2015 05:45 7,3 C 7,0 C 86 % 1016,8 hPa 0,0 mm 0,0 km/h (0 Bft) S 180 5,1 C 0,0 km/h (0 Bft)
10.07.2015 05:50 7,3 C 7,0 C 86 % 1016,8 hPa 0,0 mm 0,0 km/h (0 Bft) SW 225 5,1 C 0,0 km/h (0 Bft)
10.07.2015 05:55 7,3 C 7,0 C 86 % 1016,8 hPa 0,0 mm 0,0 km/h (0 Bft) SW 225 5,1 C 0,0 km/h (0 Bft)
10.07.2015 06:00 7,3 C 7,0 C 86 % 1016,8 hPa 0,0 mm 0,0 km/h (0 Bft) SW 225 5,1 C 0,0 km/h (0 Bft)
10.07.2015 06:05 7,4 C 7,1 C 86 % 1016,8 hPa 0,0 mm 0,0 km/h (0 Bft) SW 225 5,2 C 0,0 km/h (0 Bft)
10.07.2015 06:10 7,4 C 7,4 C 86 % 1016,9 hPa 0,0 mm 0,0 km/h (0 Bft) SW 225 5,2 C 0,0 km/h (0 Bft)
10.07.2015 06:15 7,6 C 8,4 C 84 % 1016,9 hPa 0,0 mm 0,0 km/h (0 Bft) SW 225 5,1 C 0,0 km/h (0 Bft)
10.07.2015 06:20 7,9 C 9,3 C 84 % 1016,9 hPa 0,0 mm 0,0 km/h (0 Bft) W-SW 247 5,4 C 0,0 km/h (0 Bft)
10.07.2015 06:25 8,1 C 9,9 C 83 % 1016,9 hPa 0,0 mm 0,0 km/h (0 Bft) O-NO 67 5,4 C 0,0 km/h (0 Bft)
10.07.2015 06:30 8,5 C 11,1 C 83 % 1016,9 hPa 0,0 mm 0,0 km/h (0 Bft) O-NO 67 5,8 C 0,0 km/h (0 Bft)
10.07.2015 06:35 8,8 C 12,2 C 83 % 1016,9 hPa 0,0 mm 0,0 km/h (0 Bft) O-NO 67 6,1 C 0,0 km/h (0 Bft)
10.07.2015 06:40 9,1 C 13,5 C 86 % 1016,9 hPa 0,0 mm 0,0 km/h (0 Bft) O-NO 67 6,9 C 0,0 km/h (0 Bft)
10.07.2015 06:45 9,4 C 14,2 C 86 % 1016,9 hPa 0,0 mm 0,0 km/h (0 Bft) O-NO 67 7,2 C 0,0 km/h (0 Bft)
10.07.2015 06:50 9,8 C 15,3 C 85 % 1016,9 hPa 0,0 mm 0,0 km/h (0 Bft) O-NO 67 7,4 C 0,0 km/h (0 Bft)
10.07.2015 06:55 10,2 C 15,7 C 85 % 1016,9 hPa 0,0 mm 0,0 km/h (0 Bft) NO 45 7,8 C 0,0 km/h (0 Bft)
10.07.2015 07:00 10,7 C 16,6 C 84 % 1016,9 hPa 0,0 mm 0,0 km/h (0 Bft) NO 45 8,1 C 0,0 km/h (0 Bft)
10.07.2015 07:05 11,0 C 17,8 C 83 % 1016,9 hPa 0,0 mm 0,0 km/h (0 Bft) NO 45 8,2 C 0,0 km/h (0 Bft)
10.07.2015 07:10 12,0 C 19,0 C 82 % 1016,8 hPa 0,0 mm 0,0 km/h (0 Bft) N-NO 22 9,0 C 0,0 km/h (0 Bft)
10.07.2015 07:15 12,0 C 19,6 C 81 % 1016,8 hPa 0,0 mm 0,0 km/h (0 Bft) N-NO 22 8,8 C 0,0 km/h (0 Bft)
10.07.2015 07:20 12,4 C 20,6 C 79 % 1016,8 hPa 0,0 mm 0,0 km/h (0 Bft) N-NO 22 8,9 C 0,0 km/h (0 Bft)
10.07.2015 07:25 12,8 C 21,4 C 79 % 1016,8 hPa 0,0 mm 0,0 km/h (0 Bft) O-NO 67 9,2 C 0,0 km/h (0 Bft)
10.07.2015 07:30 12,9 C 22,3 C 77 % 1016,9 hPa 0,0 mm 0,0 km/h (0 Bft) NO 45 9,0 C 0,0 km/h (0 Bft)
10.07.2015 07:35 13,6 C 22,7 C 76 % 1016,9 hPa 0,0 mm 0,0 km/h (0 Bft) O 90 9,4 C 0,0 km/h (0 Bft)
10.07.2015 07:40 13,9 C 23,1 C 75 % 1016,9 hPa 0,0 mm 0,0 km/h (0 Bft) N-NO 22 9,5 C 0,0 km/h (0 Bft)
10.07.2015 07:41 14,3 C 22,7 C 74 % 1016,9 hPa 0,0 mm 0,0 km/h (0 Bft) N 360 9,7 C 0,0 km/h (0 Bft)
10.07.2015 07:43 14,3 C 22,7 C 74 % 1016,9 hPa 0,0 mm 0,0 km/h (0 Bft) N 360 9,7 C 0,0 km/h (0 Bft)
10.07.2015 07:45 14,3 C 22,7 C 74 % 1016,9 hPa 0,0 mm 0,0 km/h (0 Bft) N 360 9,7 C 0,0 km/h (0 Bft)
10.07.2015 07:50 14,8 C 22,5 C 73 % 1017,1 hPa 0,0 mm 0,3 km/h (0 Bft) NO 45 10,0 C 2,8 km/h (1 Bft)
10.07.2015 07:55 14,5 C 22,3 C 72 % 1017,1 hPa 0,0 mm 0,3 km/h (0 Bft) N-NW 337 9,5 C 0,0 km/h (0 Bft)
10.07.2015 08:00 15,1 C 22,4 C 72 % 1017,1 hPa 0,0 mm 0,8 km/h (0 Bft) N-NO 22 10,1 C 3,9 km/h (1 Bft)
10.07.2015 08:05 15,4 C 22,6 C 71 % 1017,1 hPa 0,0 mm 0,8 km/h (0 Bft) N 360 10,2 C 4,4 km/h (1 Bft)
10.07.2015 08:10 15,6 C 22,9 C 69 % 1016,9 hPa 0,0 mm 0,8 km/h (0 Bft) N-NW 337 9,9 C 2,8 km/h (1 Bft)
10.07.2015 08:15 15,6 C 22,7 C 69 % 1016,9 hPa 0,0 mm 2,1 km/h (1 Bft) NW 315 9,9 C 6,2 km/h (2 Bft)
10.07.2015 08:20 15,2 C 22,3 C 68 % 1016,9 hPa 0,0 mm 3,1 km/h (1 Bft) N-NO 22 9,3 C 4,4 km/h (1 Bft)
10.07.2015 08:25 15,5 C 22,7 C 68 % 1016,9 hPa 0,0 mm 2,8 km/h (1 Bft) N-NW 337 9,6 C 0,0 km/h (0 Bft)
10.07.2015 08:30 16,1 C 23,3 C 66 % 1016,8 hPa 0,0 mm 2,3 km/h (1 Bft) NW 315 9,7 C 7,3 km/h (2 Bft)
10.07.2015 08:35 15,9 C 23,0 C 65 % 1016,8 hPa 0,0 mm 2,8 km/h (1 Bft) O 90 9,3 C 3,9 km/h (1 Bft)
10.07.2015 08:40 15,8 C 22,9 C 66 % 1016,8 hPa 0,0 mm 2,3 km/h (1 Bft) N-NO 22 9,5 C 9,3 km/h (2 Bft)
10.07.2015 08:45 16,0 C 22,8 C 64 % 1016,8 hPa 0,0 mm 2,1 km/h (1 Bft) N 360 9,2 C 3,9 km/h (1 Bft)
10.07.2015 08:50 15,9 C 22,4 C 64 % 1017,0 hPa 0,0 mm 3,6 km/h (1 Bft) O-NO 67 9,1 C 4,7 km/h (1 Bft)
10.07.2015 08:55 16,1 C 22,8 C 64 % 1017,0 hPa 0,0 mm 3,1 km/h (1 Bft) O-NO 67 9,3 C 4,1 km/h (1 Bft)
10.07.2015 09:00 16,2 C 23,1 C 63 % 1017,0 hPa 0,0 mm 2,3 km/h (1 Bft) N-NO 22 9,1 C 0,0 km/h (0 Bft)
10.07.2015 09:05 16,3 C 23,2 C 62 % 1017,0 hPa 0,0 mm 3,4 km/h (1 Bft) S-SO 157 9,0 C 5,7 km/h (1 Bft)
10.07.2015 09:10 16,3 C 22,9 C 63 % 1017,0 hPa 0,0 mm 2,8 km/h (1 Bft) NW 315 9,2 C 0,0 km/h (0 Bft)
10.07.2015 09:15 16,5 C 23,7 C 63 % 1017,0 hPa 0,0 mm 2,1 km/h (1 Bft) N-NW 337 9,4 C 0,0 km/h (0 Bft)
10.07.2015 09:20 17,1 C 24,8 C 61 % 1017,0 hPa 0,0 mm 1,6 km/h (1 Bft) O-NO 67 9,5 C 13,2 km/h (3 Bft)
10.07.2015 09:25 16,9 C 24,0 C 61 % 1017,0 hPa 0,0 mm 3,4 km/h (1 Bft) NO 45 9,3 C 3,6 km/h (1 Bft)
10.07.2015 09:30 16,9 C 23,5 C 61 % 1016,9 hPa 0,0 mm 6,2 km/h (2 Bft) O-SO 112 9,3 C 13,5 km/h (3 Bft)
10.07.2015 09:35 16,8 C 23,3 C 61 % 1016,9 hPa 0,0 mm 6,0 km/h (2 Bft) NW 315 9,2 C 8,3 km/h (2 Bft)
10.07.2015 09:40 17,0 C 23,3 C 60 % 1016,9 hPa 0,0 mm 5,4 km/h (1 Bft) N-NO 22 9,2 C 4,1 km/h (1 Bft)
10.07.2015 09:45 17,1 C 23,5 C 61 % 1016,9 hPa 0,0 mm 4,9 km/h (1 Bft) NW 315 9,5 C 7,8 km/h (2 Bft)
10.07.2015 09:50 17,0 C 23,2 C 60 % 1017,1 hPa 0,0 mm 5,4 km/h (1 Bft) N-NO 22 9,2 C 14,2 km/h (3 Bft)
10.07.2015 09:55 17,0 C 22,8 C 61 % 1017,1 hPa 0,0 mm 6,7 km/h (2 Bft) O-NO 67 9,4 C 7,3 km/h (2 Bft)
10.07.2015 10:00 17,2 C 22,7 C 62 % 1017,1 hPa 0,0 mm 7,0 km/h (2 Bft) O-NO 67 9,9 C 8,3 km/h (2 Bft)
10.07.2015 10:05 17,1 C 22,5 C 61 % 1017,1 hPa 0,0 mm 6,7 km/h (2 Bft) NO 45 9,5 C 12,2 km/h (2 Bft)
10.07.2015 10:10 17,6 C 23,4 C 62 % 1017,2 hPa 0,0 mm 5,2 km/h (1 Bft) NO 45 10,2 C 7,0 km/h (2 Bft)
10.07.2015 10:15 17,9 C 23,7 C 61 % 1017,2 hPa 0,0 mm 3,9 km/h (1 Bft) SO 135 10,3 C 2,6 km/h (1 Bft)
10.07.2015 10:20 17,6 C 23,8 C 60 % 1017,2 hPa 0,0 mm 4,4 km/h (1 Bft) S-SW 202 9,7 C 5,2 km/h (1 Bft)
10.07.2015 10:25 17,5 C 24,1 C 59 % 1017,2 hPa 0,0 mm 4,1 km/h (1 Bft) NO 45 9,4 C 3,4 km/h (1 Bft)
10.07.2015 10:30 17,7 C 24,0 C 60 % 1017,2 hPa 0,0 mm 4,1 km/h (1 Bft) O-NO 67 9,8 C 0,0 km/h (0 Bft)
10.07.2015 10:35 18,2 C 24,6 C 60 % 1017,2 hPa 0,0 mm 3,9 km/h (1 Bft) NO 45 10,3 C 4,4 km/h (1 Bft)
10.07.2015 10:40 18,2 C 24,4 C 59 % 1017,2 hPa 0,0 mm 4,4 km/h (1 Bft) NW 315 10,1 C 0,0 km/h (0 Bft)
10.07.2015 10:45 18,0 C 24,5 C 59 % 1017,2 hPa 0,0 mm 5,2 km/h (1 Bft) N 360 9,9 C 7,8 km/h (2 Bft)
10.07.2015 10:50 18,3 C 24,8 C 59 % 1017,2 hPa 0,0 mm 3,4 km/h (1 Bft) NO 45 10,1 C 0,0 km/h (0 Bft)
10.07.2015 10:55 18,7 C 25,5 C 59 % 1017,2 hPa 0,0 mm 3,1 km/h (1 Bft) S-SW 202 10,5 C 4,4 km/h (1 Bft)
10.07.2015 11:00 18,0 C 25,3 C 58 % 1017,2 hPa 0,0 mm 3,1 km/h (1 Bft) O 90 9,6 C 0,0 km/h (0 Bft)
10.07.2015 11:05 18,4 C 25,6 C 58 % 1017,2 hPa 0,0 mm 3,1 km/h (1 Bft) O-SO 112 10,0 C 2,6 km/h (1 Bft)
10.07.2015 11:10 18,5 C 25,0 C 58 % 1017,5 hPa 0,0 mm 4,1 km/h (1 Bft) O-NO 67 10,1 C 8,0 km/h (2 Bft)
10.07.2015 11:15 18,2 C 24,4 C 58 % 1017,5 hPa 0,0 mm 5,4 km/h (1 Bft) N-NW 337 9,8 C 6,5 km/h (2 Bft)
10.07.2015 11:20 18,5 C 24,1 C 58 % 1017,5 hPa 0,0 mm 6,2 km/h (2 Bft) O-NO 67 10,1 C 4,4 km/h (1 Bft)
10.07.2015 11:25 18,7 C 24,4 C 57 % 1017,5 hPa 0,0 mm 5,2 km/h (1 Bft) SO 135 10,0 C 3,6 km/h (1 Bft)
10.07.2015 11:30 19,1 C 25,7 C 58 % 1017,4 hPa 0,0 mm 1,6 km/h (1 Bft) NW 315 10,6 C 4,1 km/h (1 Bft)
10.07.2015 11:35 19,5 C 25,8 C 58 % 1017,4 hPa 0,0 mm 2,3 km/h (1 Bft) N-NO 22 11,0 C 3,4 km/h (1 Bft)
10.07.2015 11:40 19,5 C 25,5 C 58 % 1017,4 hPa 0,0 mm 4,7 km/h (1 Bft) S-SO 157 11,0 C 9,3 km/h (2 Bft)
10.07.2015 11:45 19,5 C 25,4 C 58 % 1017,4 hPa 0,0 mm 4,1 km/h (1 Bft) O-SO 112 11,0 C 8,3 km/h (2 Bft)
10.07.2015 11:50 19,6 C 25,1 C 58 % 1017,6 hPa 0,0 mm 5,4 km/h (1 Bft) NO 45 11,1 C 15,3 km/h (3 Bft)
10.07.2015 11:55 19,5 C 24,8 C 58 % 1017,6 hPa 0,0 mm 6,7 km/h (2 Bft) O-NO 67 11,0 C 6,5 km/h (2 Bft)
10.07.2015 12:00 19,8 C 24,9 C 57 % 1017,6 hPa 0,0 mm 6,0 km/h (2 Bft) O-NO 67 11,0 C 13,5 km/h (3 Bft)
10.07.2015 12:05 19,5 C 24,8 C 57 % 1017,6 hPa 0,0 mm 6,0 km/h (2 Bft) NO 45 10,8 C 10,6 km/h (2 Bft)
10.07.2015 12:10 19,5 C 24,5 C 57 % 1017,6 hPa 0,0 mm 7,5 km/h (2 Bft) NO 45 10,8 C 7,8 km/h (2 Bft)
10.07.2015 12:15 19,5 C 24,8 C 56 % 1017,6 hPa 0,0 mm 6,5 km/h (2 Bft) N-NO 22 10,5 C 10,9 km/h (2 Bft)
10.07.2015 12:20 19,8 C 24,6 C 56 % 1017,6 hPa 0,0 mm 8,0 km/h (2 Bft) W 270 10,8 C 29,0 km/h (5 Bft)
10.07.2015 12:25 20,0 C 24,8 C 56 % 1017,6 hPa 0,0 mm 7,5 km/h (2 Bft) NW 315 11,0 C 7,0 km/h (2 Bft)
10.07.2015 12:30 20,1 C 24,8 C 55 % 1017,4 hPa 0,0 mm 5,2 km/h (1 Bft) N-NO 22 10,8 C 0,0 km/h (0 Bft)
10.07.2015 12:35 20,1 C 24,9 C 54 % 1017,4 hPa 0,0 mm 6,7 km/h (2 Bft) N 360 10,5 C 8,0 km/h (2 Bft)
10.07.2015 12:40 20,2 C 24,9 C 55 % 1017,4 hPa 0,0 mm 6,5 km/h (2 Bft) N-NO 22 10,9 C 9,3 km/h (2 Bft)
10.07.2015 12:45 20,3 C 24,9 C 55 % 1017,4 hPa 0,0 mm 7,0 km/h (2 Bft) W-NW 292 11,0 C 7,8 km/h (2 Bft)
10.07.2015 12:50 20,2 C 24,8 C 53 % 1017,3 hPa 0,0 mm 7,8 km/h (2 Bft) S-SW 202 10,3 C 9,6 km/h (2 Bft)
10.07.2015 12:55 20,0 C 24,5 C 53 % 1017,3 hPa 0,0 mm 7,5 km/h (2 Bft) O-NO 67 10,1 C 9,3 km/h (2 Bft)
10.07.2015 13:00 19,8 C 24,5 C 54 % 1017,3 hPa 0,0 mm 6,0 km/h (2 Bft) S 180 10,2 C 3,1 km/h (1 Bft)
10.07.2015 13:05 20,2 C 25,0 C 54 % 1017,3 hPa 0,0 mm 4,1 km/h (1 Bft) N-NO 22 10,6 C 4,9 km/h (1 Bft)
10.07.2015 13:10 20,5 C 25,3 C 54 % 1017,2 hPa 0,0 mm 4,7 km/h (1 Bft) N-NO 22 10,9 C 6,5 km/h (2 Bft)
10.07.2015 13:15 20,6 C 24,8 C 54 % 1017,2 hPa 0,0 mm 7,0 km/h (2 Bft) NO 45 11,0 C 6,0 km/h (2 Bft)
10.07.2015 13:20 20,7 C 24,0 C 55 % 1017,2 hPa 0,0 mm 6,7 km/h (2 Bft) NW 315 11,3 C 7,3 km/h (2 Bft)
10.07.2015 13:25 20,4 C 22,8 C 54 % 1017,2 hPa 0,0 mm 6,5 km/h (2 Bft) W-NW 292 10,8 C 6,7 km/h (2 Bft)
10.07.2015 13:30 20,5 C 22,7 C 54 % 1017,1 hPa 0,0 mm 8,5 km/h (2 Bft) N-NW 337 10,9 C 8,5 km/h (2 Bft)
10.07.2015 13:35 20,8 C 23,4 C 55 % 1017,1 hPa 0,0 mm 5,4 km/h (1 Bft) S-SW 202 11,4 C 3,9 km/h (1 Bft)
10.07.2015 13:40 20,7 C 24,6 C 53 % 1017,1 hPa 0,0 mm 2,1 km/h (1 Bft) NO 45 10,8 C 3,1 km/h (1 Bft)
10.07.2015 13:41 20,8 C 25,5 C 54 % 1017,1 hPa 0,0 mm 1,6 km/h (1 Bft) SO 135 11,1 C 7,3 km/h (2 Bft)
10.07.2015 13:44 20,8 C 25,5 C 54 % 1017,1 hPa 0,0 mm 1,6 km/h (1 Bft) SO 135 11,1 C 7,3 km/h (2 Bft)
10.07.2015 13:45 20,8 C 25,5 C 54 % 1017,1 hPa 0,0 mm 1,6 km/h (1 Bft) SO 135 11,1 C 7,3 km/h (2 Bft)
10.07.2015 13:50 20,7 C 25,9 C 53 % 1016,9 hPa 0,0 mm 2,8 km/h (1 Bft) W-SW 247 10,8 C 4,9 km/h (1 Bft)
10.07.2015 13:55 20,7 C 26,3 C 54 % 1016,9 hPa 0,0 mm 4,1 km/h (1 Bft) NW 315 11,1 C 14,8 km/h (3 Bft)
10.07.2015 14:00 21,3 C 26,0 C 53 % 1016,9 hPa 0,0 mm 6,2 km/h (2 Bft) N-NW 337 11,3 C 11,1 km/h (2 Bft)
10.07.2015 14:05 21,3 C 25,8 C 54 % 1016,9 hPa 0,0 mm 8,5 km/h (2 Bft) W-NW 292 11,6 C 7,3 km/h (2 Bft)
10.07.2015 14:10 21,4 C 25,7 C 54 % 1016,7 hPa 0,0 mm 7,5 km/h (2 Bft) W-NW 292 11,7 C 4,7 km/h (1 Bft)
10.07.2015 14:15 21,7 C 25,8 C 54 % 1016,7 hPa 0,0 mm 5,7 km/h (1 Bft) W 270 12,0 C 7,0 km/h (2 Bft)
10.07.2015 14:20 22,0 C 26,3 C 54 % 1016,7 hPa 0,0 mm 4,9 km/h (1 Bft) N-NW 337 12,3 C 11,1 km/h (2 Bft)
10.07.2015 14:25 21,9 C 26,3 C 53 % 1016,7 hPa 0,0 mm 5,4 km/h (1 Bft) O-SO 112 11,9 C 4,1 km/h (1 Bft)
10.07.2015 14:30 21,3 C 26,1 C 53 % 1016,4 hPa 0,0 mm 5,7 km/h (1 Bft) O-SO 112 11,3 C 4,9 km/h (1 Bft)
10.07.2015 14:35 21,2 C 26,2 C 53 % 1016,4 hPa 0,0 mm 4,7 km/h (1 Bft) O-NO 67 11,2 C 7,3 km/h (2 Bft)
10.07.2015 14:40 21,4 C 26,2 C 54 % 1016,4 hPa 0,0 mm 5,4 km/h (1 Bft) W-NW 292 11,7 C 9,3 km/h (2 Bft)
10.07.2015 14:45 21,6 C 26,2 C 54 % 1016,4 hPa 0,0 mm 6,5 km/h (2 Bft) N-NO 22 11,9 C 9,6 km/h (2 Bft)
10.07.2015 14:50 21,7 C 25,9 C 54 % 1016,2 hPa 0,0 mm 6,5 km/h (2 Bft) NW 315 12,0 C 10,9 km/h (2 Bft)
10.07.2015 14:55 21,9 C 25,8 C 54 % 1016,2 hPa 0,0 mm 6,5 km/h (2 Bft) N-NO 22 12,2 C 7,8 km/h (2 Bft)
10.07.2015 15:00 22,0 C 25,9 C 54 % 1016,2 hPa 0,0 mm 7,5 km/h (2 Bft) W-NW 292 12,3 C 9,8 km/h (2 Bft)
10.07.2015 15:05 21,9 C 26,0 C 53 % 1016,2 hPa 0,0 mm 7,0 km/h (2 Bft) O-NO 67 11,9 C 6,0 km/h (2 Bft)
10.07.2015 15:10 22,0 C 26,5 C 53 % 1016,2 hPa 0,0 mm 5,7 km/h (1 Bft) NW 315 12,0 C 6,0 km/h (2 Bft)
10.07.2015 15:15 22,3 C 26,7 C 54 % 1016,2 hPa 0,0 mm 4,4 km/h (1 Bft) NW 315 12,5 C 5,2 km/h (1 Bft)
10.07.2015 15:20 22,4 C 27,0 C 53 % 1016,2 hPa 0,0 mm 4,4 km/h (1 Bft) NW 315 12,3 C 0,0 km/h (0 Bft)
10.07.2015 15:25 22,4 C 27,3 C 53 % 1016,2 hPa 0,0 mm 4,9 km/h (1 Bft) N-NW 337 12,3 C 10,9 km/h (2 Bft)
10.07.2015 15:30 22,4 C 26,9 C 53 % 1016,0 hPa 0,0 mm 4,9 km/h (1 Bft) SW 225 12,3 C 6,0 km/h (2 Bft)
10.07.2015 15:35 22,5 C 26,9 C 53 % 1016,0 hPa 0,0 mm 4,9 km/h (1 Bft) W 270 12,4 C 4,7 km/h (1 Bft)
10.07.2015 15:40 22,7 C 27,2 C 53 % 1016,0 hPa 0,0 mm 3,9 km/h (1 Bft) W-SW 247 12,6 C 2,8 km/h (1 Bft)
10.07.2015 15:45 22,8 C 27,4 C 52 % 1016,0 hPa 0,0 mm 4,1 km/h (1 Bft) W-NW 292 12,4 C 4,1 km/h (1 Bft)
10.07.2015 15:50 22,7 C 27,2 C 53 % 1015,8 hPa 0,0 mm 4,7 km/h (1 Bft) W-NW 292 12,6 C 4,1 km/h (1 Bft)
10.07.2015 15:55 22,6 C 27,2 C 52 % 1015,8 hPa 0,0 mm 6,0 km/h (2 Bft) W-NW 292 12,2 C 8,5 km/h (2 Bft)
10.07.2015 16:00 22,3 C 26,4 C 52 % 1015,8 hPa 0,0 mm 7,8 km/h (2 Bft) W 270 12,0 C 15,0 km/h (3 Bft)
10.07.2015 16:05 22,1 C 26,3 C 52 % 1015,8 hPa 0,0 mm 8,3 km/h (2 Bft) NW 315 11,8 C 7,3 km/h (2 Bft)
10.07.2015 16:10 22,0 C 26,3 C 52 % 1015,6 hPa 0,0 mm 6,5 km/h (2 Bft) W 270 11,7 C 6,7 km/h (2 Bft)
10.07.2015 16:15 21,6 C 26,7 C 53 % 1015,6 hPa 0,0 mm 5,7 km/h (1 Bft) N-NW 337 11,6 C 7,8 km/h (2 Bft)
10.07.2015 16:20 21,2 C 26,8 C 53 % 1015,6 hPa 0,0 mm 6,0 km/h (2 Bft) O-NO 67 11,2 C 9,8 km/h (2 Bft)
10.07.2015 16:25 21,1 C 26,7 C 53 % 1015,6 hPa 0,0 mm 6,0 km/h (2 Bft) N-NW 337 11,1 C 6,5 km/h (2 Bft)
10.07.2015 16:30 21,1 C 27,0 C 53 % 1015,6 hPa 0,0 mm 5,7 km/h (1 Bft) S-SO 157 11,1 C 4,4 km/h (1 Bft)
10.07.2015 16:35 20,9 C 27,1 C 54 % 1015,6 hPa 0,0 mm 5,7 km/h (1 Bft) NW 315 11,2 C 10,9 km/h (2 Bft)
10.07.2015 16:40 20,9 C 26,9 C 54 % 1015,6 hPa 0,0 mm 6,0 km/h (2 Bft) N-NO 22 11,2 C 6,2 km/h (2 Bft)
10.07.2015 16:45 20,7 C 27,1 C 54 % 1015,6 hPa 0,0 mm 5,2 km/h (1 Bft) W 270 11,1 C 4,4 km/h (1 Bft)
10.07.2015 16:50 20,8 C 27,3 C 54 % 1015,4 hPa 0,0 mm 4,1 km/h (1 Bft) NW 315 11,1 C 7,8 km/h (2 Bft)
10.07.2015 16:55 20,7 C 27,3 C 54 % 1015,4 hPa 0,0 mm 5,2 km/h (1 Bft) NW 315 11,1 C 8,3 km/h (2 Bft)
10.07.2015 17:00 20,7 C 26,7 C 55 % 1015,4 hPa 0,0 mm 7,0 km/h (2 Bft) NW 315 11,3 C 7,0 km/h (2 Bft)
10.07.2015 17:05 20,7 C 26,7 C 54 % 1015,4 hPa 0,0 mm 6,5 km/h (2 Bft) N-NW 337 11,1 C 6,5 km/h (2 Bft)
10.07.2015 17:10 20,7 C 26,1 C 54 % 1015,3 hPa 0,0 mm 3,6 km/h (1 Bft) N-NO 22 11,1 C 0,0 km/h (0 Bft)
10.07.2015 17:15 20,7 C 24,9 C 54 % 1015,3 hPa 0,0 mm 2,8 km/h (1 Bft) N-NW 337 11,1 C 0,0 km/h (0 Bft)
10.07.2015 17:20 20,8 C 23,5 C 54 % 1015,3 hPa 0,0 mm 5,2 km/h (1 Bft) N-NW 337 11,1 C 10,6 km/h (2 Bft)
10.07.2015 17:25 20,8 C 22,9 C 54 % 1015,3 hPa 0,0 mm 6,0 km/h (2 Bft) O-SO 112 11,1 C 3,9 km/h (1 Bft)
10.07.2015 17:30 20,7 C 22,3 C 55 % 1015,2 hPa 0,0 mm 5,2 km/h (1 Bft) NW 315 11,3 C 2,6 km/h (1 Bft)
10.07.2015 17:35 20,7 C 22,2 C 54 % 1015,2 hPa 0,0 mm 4,4 km/h (1 Bft) NW 315 11,1 C 7,8 km/h (2 Bft)
10.07.2015 17:40 20,9 C 22,0 C 54 % 1015,2 hPa 0,0 mm 6,5 km/h (2 Bft) N-NW 337 11,2 C 12,4 km/h (3 Bft)
10.07.2015 17:45 20,9 C 21,8 C 54 % 1015,2 hPa 0,0 mm 7,0 km/h (2 Bft) W 270 11,2 C 3,4 km/h (1 Bft)
10.07.2015 17:50 20,8 C 21,7 C 54 % 1015,1 hPa 0,0 mm 5,4 km/h (1 Bft) NW 315 11,1 C 6,0 km/h (2 Bft)
10.07.2015 17:55 20,7 C 21,7 C 54 % 1015,1 hPa 0,0 mm 5,4 km/h (1 Bft) N-NO 22 11,1 C 4,9 km/h (1 Bft)
10.07.2015 18:00 20,7 C 21,7 C 54 % 1015,1 hPa 0,0 mm 5,7 km/h (1 Bft) NW 315 11,1 C 8,3 km/h (2 Bft)
10.07.2015 18:05 20,7 C 21,7 C 54 % 1015,1 hPa 0,0 mm 5,2 km/h (1 Bft) N-NO 22 11,1 C 6,2 km/h (2 Bft)
10.07.2015 18:10 20,7 C 21,5 C 54 % 1015,0 hPa 0,0 mm 6,7 km/h (2 Bft) N 360 11,1 C 7,5 km/h (2 Bft)
10.07.2015 18:15 20,7 C 21,4 C 54 % 1015,0 hPa 0,0 mm 7,5 km/h (2 Bft) O-NO 67 11,1 C 4,7 km/h (1 Bft)
10.07.2015 18:20 20,6 C 21,3 C 54 % 1015,0 hPa 0,0 mm 7,5 km/h (2 Bft) N-NW 337 11,0 C 6,0 km/h (2 Bft)
10.07.2015 18:25 20,6 C 21,2 C 54 % 1015,0 hPa 0,0 mm 5,2 km/h (1 Bft) O-NO 67 11,0 C 3,9 km/h (1 Bft)
10.07.2015 18:30 20,5 C 21,2 C 54 % 1015,1 hPa 0,0 mm 3,9 km/h (1 Bft) N-NW 337 10,9 C 16,3 km/h (3 Bft)
10.07.2015 18:35 20,6 C 21,1 C 54 % 1015,1 hPa 0,0 mm 4,7 km/h (1 Bft) N-NW 337 11,0 C 4,1 km/h (1 Bft)
10.07.2015 18:40 20,4 C 21,8 C 53 % 1015,1 hPa 0,0 mm 7,8 km/h (2 Bft) NO 45 10,5 C 7,0 km/h (2 Bft)
10.07.2015 18:45 20,4 C 22,4 C 54 % 1015,1 hPa 0,0 mm 7,5 km/h (2 Bft) N-NO 22 10,8 C 9,6 km/h (2 Bft)
10.07.2015 18:50 20,3 C 23,7 C 53 % 1014,9 hPa 0,0 mm 6,5 km/h (2 Bft) N-NO 22 10,4 C 7,3 km/h (2 Bft)
10.07.2015 18:55 20,4 C 24,3 C 54 % 1014,9 hPa 0,0 mm 6,7 km/h (2 Bft) N-NO 22 10,8 C 14,5 km/h (3 Bft)
10.07.2015 19:00 20,4 C 24,6 C 53 % 1014,9 hPa 0,0 mm 7,0 km/h (2 Bft) N-NO 22 10,5 C 3,9 km/h (1 Bft)
10.07.2015 19:05 20,4 C 24,8 C 54 % 1014,9 hPa 0,0 mm 7,0 km/h (2 Bft) NO 45 10,8 C 12,2 km/h (2 Bft)
10.07.2015 19:10 20,3 C 24,8 C 54 % 1015,0 hPa 0,0 mm 4,7 km/h (1 Bft) N-NO 22 10,7 C 3,9 km/h (1 Bft)
10.07.2015 19:15 20,3 C 25,0 C 54 % 1015,0 hPa 0,0 mm 5,4 km/h (1 Bft) N-NO 22 10,7 C 8,5 km/h (2 Bft)
10.07.2015 19:20 20,1 C 24,8 C 53 % 1015,0 hPa 0,0 mm 6,2 km/h (2 Bft) O-NO 67 10,2 C 12,9 km/h (3 Bft)
10.07.2015 19:25 20,1 C 24,5 C 53 % 1015,0 hPa 0,0 mm 6,7 km/h (2 Bft) N-NO 22 10,2 C 9,1 km/h (2 Bft)
10.07.2015 19:30 20,0 C 24,2 C 53 % 1014,9 hPa 0,0 mm 6,5 km/h (2 Bft) N-NO 22 10,1 C 4,4 km/h (1 Bft)
10.07.2015 19:35 20,0 C 24,1 C 52 % 1014,9 hPa 0,0 mm 6,5 km/h (2 Bft) NO 45 9,8 C 16,1 km/h (3 Bft)
10.07.2015 19:40 19,9 C 23,7 C 53 % 1014,9 hPa 0,0 mm 7,0 km/h (2 Bft) N 360 10,0 C 9,6 km/h (2 Bft)
10.07.2015 19:41 20,0 C 23,7 C 53 % 1014,9 hPa 0,0 mm 6,7 km/h (2 Bft) N-NW 337 10,1 C 5,4 km/h (1 Bft)
10.07.2015 19:45 20,0 C 23,7 C 53 % 1014,9 hPa 0,0 mm 6,7 km/h (2 Bft) N-NW 337 10,1 C 5,4 km/h (1 Bft)
10.07.2015 19:50 20,0 C 23,7 C 53 % 1014,9 hPa 0,0 mm 5,2 km/h (1 Bft) O-NO 67 10,1 C 7,5 km/h (2 Bft)
10.07.2015 19:55 19,9 C 23,5 C 52 % 1014,9 hPa 0,0 mm 4,9 km/h (1 Bft) NW 315 9,7 C 9,6 km/h (2 Bft)
10.07.2015 20:00 20,0 C 23,3 C 52 % 1014,9 hPa 0,0 mm 4,9 km/h (1 Bft) N-NW 337 9,8 C 0,0 km/h (0 Bft)
10.07.2015 20:05 19,9 C 23,3 C 53 % 1014,9 hPa 0,0 mm 4,1 km/h (1 Bft) N-NO 22 10,0 C 3,6 km/h (1 Bft)
10.07.2015 20:10 19,9 C 23,2 C 53 % 1015,1 hPa 0,0 mm 3,6 km/h (1 Bft) NW 315 10,0 C 9,8 km/h (2 Bft)
10.07.2015 20:15 19,7 C 22,9 C 53 % 1015,1 hPa 0,0 mm 4,9 km/h (1 Bft) NW 315 9,8 C 8,0 km/h (2 Bft)
10.07.2015 20:20 19,4 C 22,4 C 53 % 1015,1 hPa 0,0 mm 4,9 km/h (1 Bft) O-NO 67 9,6 C 4,1 km/h (1 Bft)
10.07.2015 20:25 19,1 C 22,2 C 53 % 1015,1 hPa 0,0 mm 3,6 km/h (1 Bft) O-NO 67 9,3 C 4,4 km/h (1 Bft)
10.07.2015 20:30 18,7 C 22,0 C 54 % 1015,1 hPa 0,0 mm 1,8 km/h (1 Bft) N-NO 22 9,2 C 2,8 km/h (1 Bft)
10.07.2015 20:35 18,5 C 21,8 C 55 % 1015,1 hPa 0,0 mm 0,8 km/h (0 Bft) S-SO 157 9,3 C 0,0 km/h (0 Bft)
10.07.2015 20:40 18,2 C 21,7 C 55 % 1015,1 hPa 0,0 mm 0,3 km/h (0 Bft) SO 135 9,0 C 0,0 km/h (0 Bft)
10.07.2015 20:45 18,0 C 21,4 C 56 % 1015,1 hPa 0,0 mm 0,3 km/h (0 Bft) SO 135 9,1 C 0,0 km/h (0 Bft)
10.07.2015 20:50 17,8 C 20,6 C 56 % 1015,1 hPa 0,0 mm 0,3 km/h (0 Bft) O-SO 112 8,9 C 0,0 km/h (0 Bft)
10.07.2015 20:55 17,5 C 20,1 C 56 % 1015,1 hPa 0,0 mm 0,3 km/h (0 Bft) NW 315 8,6 C 0,0 km/h (0 Bft)
10.07.2015 21:00 17,1 C 19,4 C 57 % 1015,1 hPa 0,0 mm 0,3 km/h (0 Bft) O-SO 112 8,5 C 0,0 km/h (0 Bft)
10.07.2015 21:05 17,0 C 18,9 C 58 % 1015,1 hPa 0,0 mm 0,0 km/h (0 Bft) O-SO 112 8,7 C 0,0 km/h (0 Bft)
10.07.2015 21:10 16,6 C 17,8 C 58 % 1015,1 hPa 0,0 mm 1,0 km/h (0 Bft) S-SO 157 8,3 C 0,0 km/h (0 Bft)
10.07.2015 21:15 16,4 C 17,2 C 59 % 1015,1 hPa 0,0 mm 1,8 km/h (1 Bft) S-SO 157 8,4 C 3,9 km/h (1 Bft)
10.07.2015 21:20 16,1 C 16,4 C 59 % 1015,1 hPa 0,0 mm 2,1 km/h (1 Bft) S-SO 157 8,1 C 2,6 km/h (1 Bft)
10.07.2015 21:25 15,8 C 16,0 C 60 % 1015,1 hPa 0,0 mm 2,6 km/h (1 Bft) S-SO 157 8,1 C 3,6 km/h (1 Bft)
10.07.2015 21:30 15,4 C 15,4 C 62 % 1014,9 hPa 0,0 mm 1,3 km/h (1 Bft) S-SO 157 8,2 C 0,0 km/h (0 Bft)
10.07.2015 21:35 15,0 C 15,2 C 63 % 1014,9 hPa 0,0 mm 0,5 km/h (0 Bft) O 90 8,0 C 0,0 km/h (0 Bft)
10.07.2015 21:40 14,6 C 14,6 C 64 % 1014,9 hPa 0,0 mm 0,0 km/h (0 Bft) O-SO 112 7,9 C 0,0 km/h (0 Bft)
10.07.2015 21:45 14,4 C 14,2 C 65 % 1014,9 hPa 0,0 mm 0,0 km/h (0 Bft) O 90 7,9 C 0,0 km/h (0 Bft)
10.07.2015 21:50 13,8 C 13,7 C 66 % 1014,9 hPa 0,0 mm 0,0 km/h (0 Bft) O 90 7,6 C 0,0 km/h (0 Bft)
10.07.2015 21:55 13,6 C 13,5 C 67 % 1014,9 hPa 0,0 mm 0,0 km/h (0 Bft) O-NO 67 7,6 C 0,0 km/h (0 Bft)
10.07.2015 22:00 13,6 C 13,4 C 68 % 1014,9 hPa 0,0 mm 0,0 km/h (0 Bft) W-NW 292 7,8 C 0,0 km/h (0 Bft)
10.07.2015 22:05 13,5 C 13,1 C 68 % 1014,9 hPa 0,0 mm 0,0 km/h (0 Bft) O 90 7,7 C 0,0 km/h (0 Bft)
10.07.2015 22:10 13,1 C 12,8 C 68 % 1015,1 hPa 0,0 mm 0,0 km/h (0 Bft) O 90 7,3 C 0,0 km/h (0 Bft)
10.07.2015 22:15 12,9 C 12,6 C 68 % 1015,1 hPa 0,0 mm 0,0 km/h (0 Bft) O 90 7,1 C 0,0 km/h (0 Bft)
10.07.2015 22:20 12,8 C 12,4 C 69 % 1015,1 hPa 0,0 mm 0,0 km/h (0 Bft) N-NO 22 7,3 C 0,0 km/h (0 Bft)
10.07.2015 22:25 12,6 C 12,3 C 69 % 1015,1 hPa 0,0 mm 0,0 km/h (0 Bft) S-SO 157 7,1 C 0,0 km/h (0 Bft)
10.07.2015 22:30 12,7 C 12,3 C 72 % 1014,9 hPa 0,0 mm 0,0 km/h (0 Bft) NO 45 7,8 C 0,0 km/h (0 Bft)
10.07.2015 22:35 12,7 C 12,3 C 71 % 1014,9 hPa 0,0 mm 0,0 km/h (0 Bft) O-NO 67 7,6 C 0,0 km/h (0 Bft)
10.07.2015 22:40 12,6 C 12,2 C 72 % 1014,9 hPa 0,0 mm 0,0 km/h (0 Bft) N-NO 22 7,7 C 0,0 km/h (0 Bft)
10.07.2015 22:45 12,4 C 12,1 C 72 % 1014,9 hPa 0,0 mm 0,0 km/h (0 Bft) N-NO 22 7,5 C 0,0 km/h (0 Bft)
10.07.2015 22:50 12,1 C 11,8 C 72 % 1014,9 hPa 0,0 mm 0,0 km/h (0 Bft) O-SO 112 7,2 C 0,0 km/h (0 Bft)
10.07.2015 22:55 12,1 C 11,8 C 73 % 1014,9 hPa 0,0 mm 0,0 km/h (0 Bft) SO 135 7,4 C 0,0 km/h (0 Bft)
10.07.2015 23:00 11,9 C 11,6 C 73 % 1014,9 hPa 0,0 mm 0,0 km/h (0 Bft) O-NO 67 7,2 C 0,0 km/h (0 Bft)
10.07.2015 23:05 11,8 C 11,5 C 74 % 1014,9 hPa 0,0 mm 0,0 km/h (0 Bft) O 90 7,3 C 0,0 km/h (0 Bft)
10.07.2015 23:10 11,6 C 11,3 C 74 % 1015,0 hPa 0,0 mm 0,0 km/h (0 Bft) S 180 7,1 C 0,0 km/h (0 Bft)
10.07.2015 23:15 11,7 C 11,4 C 75 % 1015,0 hPa 0,0 mm 0,0 km/h (0 Bft) S 180 7,4 C 0,0 km/h (0 Bft)
10.07.2015 23:20 11,6 C 11,4 C 74 % 1015,0 hPa 0,0 mm 0,0 km/h (0 Bft) O-SO 112 7,1 C 0,0 km/h (0 Bft)
10.07.2015 23:25 11,5 C 11,3 C 75 % 1015,0 hPa 0,0 mm 0,0 km/h (0 Bft) O-SO 112 7,2 C 0,0 km/h (0 Bft)
10.07.2015 23:30 11,3 C 11,0 C 76 % 1015,0 hPa 0,0 mm 0,0 km/h (0 Bft) O-SO 112 7,2 C 0,0 km/h (0 Bft)
10.07.2015 23:35 11,3 C 11,0 C 76 % 1015,0 hPa 0,0 mm 0,0 km/h (0 Bft) O-SO 112 7,2 C 0,0 km/h (0 Bft)
10.07.2015 23:40 11,2 C 10,9 C 76 % 1015,0 hPa 0,0 mm 0,0 km/h (0 Bft) O-SO 112 7,1 C 0,0 km/h (0 Bft)
10.07.2015 23:45 11,1 C 10,8 C 77 % 1015,0 hPa 0,0 mm 0,0 km/h (0 Bft) O-SO 112 7,2 C 0,0 km/h (0 Bft)
10.07.2015 23:50 11,3 C 10,9 C 78 % 1014,7 hPa 0,0 mm 0,0 km/h (0 Bft) S-SO 157 7,6 C 0,0 km/h (0 Bft)
10.07.2015 23:55 11,4 C 11,1 C 76 % 1014,7 hPa 0,0 mm 0,0 km/h (0 Bft) S-SO 157 7,3 C 0,0 km/h (0 Bft)
_ Min-Zeit 06:00 06:00 20:00 23:55 - 23:55 - - 05:20 23:55
Minimum _ 7,3 C 7,0 C 52 % 1014,7 hPa - 0,0 km/h (0 Bft) - - 4,9 C 0,0 km/h (0 Bft)
_ Max-Zeit 15:45 15:45 06:45 12:25 23:55 14:05 - - 15:50 12:20
Maximum _ 22,8 C 27,4 C 86 % 1017,6 hPa 0,0 mm 8,5 km/h
W-NW (2 Bft)
- - 12,6 C 29,0 km/h
W (5 Bft)
Durchschnitt _ 15,6 C 18,5 C 66 % 1016,4 hPa #0,0 mm 2,7 km/h (1 Bft) N-NO - 8,9 C 3,6 km/h (1 Bft)